{"data":{"norad_id":58016,"intl_designator":"2023-155A","name":"THEOS-2 (T2V)","alt_names":[],"object_type":"PAYLOAD","status":"ACTIVE","operator":null,"country":"THAI","launch_date":"2023-10-09","launch_site_code":"FRGUI","launch_vehicle":null,"mission":null,"orbit_class":"UNKNOWN","rcs_meters":null,"size_class":null,"mass_kg":null,"dimensions":null,"purposes":[],"wikipedia_slug":null,"has_3d_model":false,"image_url":null,"decayed_at":null,"tle_current":{"epoch":"2026-09-21T22:53:06.988704Z","epoch_age_seconds":108182,"freshness":"FRESH","line1":"1 58016U 23155A   26264.95355311  .00000382  00000+0  55072-4 0  9993","line2":"2 58016  97.9116 334.4809 0001459  86.0300 274.1079 14.81729081159750","mean_motion":14.81729081,"eccentricity":0.0001459,"inclination_deg":97.9116,"raan_deg":334.4809,"arg_perigee_deg":86.03,"mean_anomaly_deg":274.1079,"bstar":5.5072e-5,"rev_number":15975,"period_min":97.183757710159,"perigee_km":622.84998144758,"apogee_km":624.89316754961,"semimajor_km":7002.0085744986,"source":"CELESTRAK","updated_at":"2026-09-22T09:00:26.439698Z"}}}